Home > Weather > Cupertino > Past weeks

Flag for USA Past Weather in Cupertino, California, USA — Yesterday and Last 2 Weeks

Now
68 °F

Sunny.


Feels Like: 68 °F
Forecast: 59 / 85 °F
Wind: 7 mph from North

Location: Moffett Field

Current Time: Jul 30, 2016 at 12:03:43 PM

Latest Report: Jul 30, 2016 at 10:56 AM


Visibility: 10 mi

Pressure: 29.85 "Hg

Humidity: 68%

Dew Point: 57 °F

Location of CupertinoLocation

Past Weather in Cupertino — Graph

°F

Cupertino Temperature Yesterday

Maximum temperature yesterday: 79 °F (at 1:56 PM)
Minimum temperature yesterday: 60 °F (at 5:56 AM)
Average temperature yesterday: 68 °F

High & Low Weather Summary for the Past Weeks

 TemperatureHumidityPressure
High88 °F (Jul 26, 2:56 PM)90% (Jul 30, 6:56 AM)30.14 "Hg (Jul 30, 6:56 AM)
Low55 °F (Jul 19, 5:56 AM)25% (Jul 26, 2:56 PM)29.79 "Hg (Jul 29, 6:56 PM)
Average67 °F66%29.96 "Hg
* Reported Jul 15 10:56 AM — Jul 30 10:56 AM, Cupertino, Weather by CustomWeather, © 2016

Note: Actual official high and low records may vary slightly from our data, if they occured in-between our weather recording intervals... More about our weather records

Advertising

Cupertino Weather History for the Previous 24 Hours

Scroll right to see more
 ConditionsComfort  
Time TempWeatherWind HumidityBarometerVisibility
10:56 AM
Sat, Jul 30
68 °FSunny.7 mph68%29.85 "Hg10 mi
9:56 AM66 °FPassing clouds.6 mph73%29.85 "Hg10 mi
8:56 AM63 °FLow clouds.No wind81%29.84 "Hg10 mi
7:56 AM61 °FLow clouds.No wind87%29.83 "Hg9 mi
6:56 AM60 °FLow clouds.3 mph90%29.82 "Hg9 mi
5:56 AM61 °FLow clouds.6 mph83%29.81 "Hg10 mi
4:56 AM61 °FLow clouds.5 mph87%29.80 "Hg10 mi
3:56 AM62 °FLow clouds.3 mph83%29.80 "Hg10 mi
2:56 AM62 °FLow clouds.3 mph83%29.80 "Hg10 mi
1:56 AM62 °FClear.No wind80%29.81 "Hg10 mi
12:56 AM62 °FClear.5 mph80%29.81 "Hg10 mi
11:56 PM
Fri, Jul 29
63 °FClear.3 mph81%29.82 "Hg10 mi
10:56 PM64 °FClear.5 mph78%29.82 "Hg10 mi
9:56 PM64 °FClear.6 mph78%29.83 "Hg10 mi
8:56 PM66 °FSunny.6 mph75%29.81 "Hg10 mi
7:56 PM68 °FSunny.8 mph68%29.80 "Hg10 mi
6:56 PM72 °FSunny.7 mph64%29.79 "Hg10 mi
5:56 PM75 °FSunny.12 mph55%29.79 "Hg10 mi
4:56 PM77 °FSunny.12 mph52%29.80 "Hg10 mi
3:56 PM78 °FSunny.10 mph48%29.80 "Hg10 mi
2:56 PM78 °FSunny.10 mph50%29.82 "Hg10 mi
1:56 PM79 °FSunny.12 mph45%29.83 "Hg10 mi
12:56 PM77 °FSunny.9 mph52%29.85 "Hg10 mi
Weather by CustomWeather, © 2016

See weather overviewHow to use our weather pages